This is the latest recevied weather packets stored in our database for station/object KI2K. If no packets are shown the sender has not sent any weather packets the latest 10 day(s).
| Time | Temp. | Humidity | Pressure | Rain* | Wind** | Luminosity | Snow |
|---|---|---|---|---|---|---|---|
| 1777725344 | 6.67° C | 68% | 1018.6 hPa | 0 mm | - | 152 W/m² | - |
| 1777725040 | 6.11° C | 73% | 1018.4 hPa | 0 mm | - | 163 W/m² | - |
| 1777724737 | 5° C | 76% | 1018.2 hPa | 0 mm | - | 134 W/m² | - |
| 1777724435 | 4.44° C | 77% | 1018.5 hPa | 0 mm | - | 77 W/m² | - |
| 1777724132 | 4.44° C | 79% | 1018.2 hPa | 0 mm | - | 41 W/m² | - |
| 1777723829 | 4.44° C | 80% | 1018.4 hPa | 0 mm | - | 43 W/m² | - |
| 1777723525 | 4.44° C | 82% | 1018.2 hPa | 0 mm | - | 33 W/m² | - |
| 1777723222 | 4.44° C | 82% | 1018.2 hPa | 0 mm | - | 30 W/m² | - |
| 1777722920 | 4.44° C | 82% | 1017.8 hPa | 0 mm | - | 27 W/m² | - |
| 1777722616 | 4.44° C | 82% | 1017.9 hPa | 0 mm | - | 22 W/m² | - |
| 1777722313 | 4.44° C | 81% | 1017.8 hPa | 0 mm | - | 23 W/m² | - |
| 1777722010 | 4.44° C | 81% | 1017.8 hPa | 0 mm | - | 20 W/m² | - |
| 1777721707 | 4.44° C | 81% | 1017.9 hPa | 0 mm | - | 18 W/m² | - |
| 1777721406 | 4.44° C | 81% | 1017.7 hPa | 0 mm | - | 20 W/m² | - |
| 1777721103 | 4.44° C | 81% | 1017.7 hPa | 0 mm | - | 18 W/m² | - |
| 1777720800 | 4.44° C | 80% | 1017.3 hPa | 0 mm | - | 15 W/m² | - |
| 1777720497 | 4.44° C | 80% | 1017.4 hPa | 0 mm | - | 11 W/m² | - |
| 1777720195 | 4.44° C | 80% | 1017.5 hPa | 0 mm | - | 9 W/m² | - |
| 1777719892 | 4.44° C | 79% | 1017.5 hPa | 0 mm | - | 4 W/m² | - |
| 1777719590 | 4.44° C | 79% | 1017.4 hPa | 0 mm | - | 2 W/m² | - |
| 1777719287 | 4.44° C | 80% | 1017.4 hPa | 0 mm | - | 1 W/m² | - |
| 1777718985 | 4.44° C | 81% | 1017.5 hPa | 0 mm | - | 0 W/m² | - |
| 1777718682 | 4.44° C | 81% | 1017.7 hPa | 0 mm | - | 0 W/m² | - |
| 1777718379 | 4.44° C | 82% | 1017.6 hPa | 0 mm | - | 0 W/m² | - |
| 1777718076 | 4.44° C | 84% | 1017.6 hPa | 0 mm | - | 0 W/m² | - |
* Rain latest hour (hover to see other rain measurements)
** Current wind speed in m/s (hover to see current wind gust speed)